Tracking 17925 objects as of 20-January-2017
HD Live streaming from Space Station
objects crossing your sky now

COSMOS 2230

Track COSMOS 2230 now!
10-day predictions
COSMOS 2230 is classified as:


NORAD ID: 22307
Int'l Code: 1993-001A
Perigee: 975.7 km
Apogee: 1,012.4 km
Inclination: 82.9 °
Period: 104.8 minutes
Semi major axis: 7365 km
RCS: 1.5931 m2 (large)
Launch date: January 12, 1993
Source: Commonwealth of Independent States (former USSR) (CIS)
Launch site: PLESETSK MISSILE AND SPACE COMPLEX (PKMTR)
Your satellite tracking list
Your tracking list is empty





NASA's NSSDC Master Catalog

Two Line Element Set (TLE):
1 22307U 93001A   17020.39647737  .00000042  00000-0  28824-4 0  9997
2 22307  82.9433 307.6855 0024928   8.0357 120.6257 13.73537591195829
Source of the keplerian elements: AFSPC